"read_dt","SO2 (ppb)","flags","PMT voltage (V)","lamp voltage (V)","lamp intensity (Hz)","internal temp (C)","react chamber temp (C)","sample flow (l/min)","pres (mmHg)","SO2 bkg (ppb)","SO2 coefficient"
2014-10-05 00:00:00,1877E-3,5C000000,-0724,0828,12167,027.1,045.4,0.479,737.8,01.18,0.508
2014-10-05 00:01:00,1872E-3,5C000000,-0724,0827,12265,027.1,045.4,0.479,737.9,01.18,0.508
2014-10-05 00:02:00,1700E-3,5C000000,-0724,0827,12256,027.0,045.4,0.479,737.8,01.18,0.508
2014-10-05 00:03:00,1708E-3,5C000000,-0724,0827,12199,027.0,045.4,0.479,737.8,01.18,0.508
2014-10-05 00:04:00,1918E-3,5C000000,-0724,0827,12197,027.0,045.4,0.479,737.8,01.18,0.508
2014-10-05 00:05:00,1900E-3,5C000000,-0724,0827,12110,027.0,045.4,0.479,737.9,01.18,0.508
2014-10-05 00:06:00,1924E-3,5C000000,-0724,0827,12196,027.0,045.5,0.479,737.9,01.18,0.508
2014-10-05 00:07:00,1770E-3,5C000000,-0724,0828,12215,026.9,045.4,0.479,737.8,01.18,0.508
2014-10-05 00:08:00,1911E-3,5C000000,-0724,0827,12344,027.0,045.4,0.479,737.9,01.18,0.508
2014-10-05 00:09:00,1927E-3,5C000000,-0724,0827,12313,027.0,045.4,0.479,737.9,01.18,0.508
2014-10-05 00:10:00,1723E-3,5C000000,-0724,0829,12334,027.1,045.4,0.479,737.9,01.18,0.508
2014-10-05 00:11:00,1831E-3,5C000000,-0724,0827,12330,027.1,045.4,0.479,737.9,01.18,0.508
2014-10-05 00:12:00,1711E-3,5C000000,-0724,0828,11858,027.1,045.4,0.479,737.9,01.18,0.508
2014-10-05 00:13:00,1831E-3,5C000000,-0724,0828,12246,027.1,045.4,0.479,737.8,01.18,0.508
2014-10-05 00:14:00,1716E-3,5C000000,-0724,0828,12170,027.1,045.4,0.479,738.0,01.18,0.508
2014-10-05 00:15:00,1881E-3,5C000000,-0724,0827,12204,027.2,045.4,0.479,737.9,01.18,0.508
2014-10-05 00:16:00,1805E-3,5C000000,-0724,0828,12214,027.2,045.4,0.479,737.8,01.18,0.508
2014-10-05 00:17:00,1828E-3,5C000000,-0724,0827,12352,027.2,045.4,0.479,737.9,01.18,0.508
2014-10-05 00:18:00,1791E-3,5C000000,-0724,0827,12223,027.2,045.4,0.479,737.9,01.18,0.508
2014-10-05 00:19:00,1800E-3,5C000000,-0724,0829,12008,027.2,045.4,0.479,737.9,01.18,0.508
2014-10-05 00:20:00,1865E-3,5C000000,-0724,0828,12272,027.1,045.4,0.479,738.0,01.18,0.508
2014-10-05 00:21:00,1878E-3,5C000000,-0724,0828,12117,027.1,045.4,0.479,738.0,01.18,0.508
2014-10-05 00:22:00,1821E-3,5C000000,-0724,0828,11991,027.1,045.4,0.479,738.0,01.18,0.508
2014-10-05 00:23:00,1840E-3,5C000000,-0724,0827,11973,027.0,045.4,0.479,738.0,01.18,0.508
2014-10-05 00:24:00,1871E-3,5C000000,-0724,0827,12327,027.0,045.4,0.479,737.8,01.18,0.508
2014-10-05 00:25:00,1740E-3,5C000000,-0724,0827,12306,027.0,045.4,0.479,737.9,01.18,0.508
2014-10-05 00:26:00,1838E-3,5C000000,-0724,0828,12358,027.0,045.4,0.479,737.8,01.18,0.508
2014-10-05 00:27:00,1787E-3,5C000000,-0724,0828,12163,027.0,045.5,0.479,738.0,01.18,0.508
2014-10-05 00:28:00,1733E-3,5C000000,-0724,0827,12129,027.0,045.4,0.479,737.9,01.18,0.508
2014-10-05 00:29:00,1734E-3,5C000000,-0724,0829,11978,027.0,045.5,0.479,737.8,01.18,0.508
2014-10-05 00:30:00,1832E-3,5C000000,-0724,0828,12096,027.0,045.4,0.479,737.8,01.18,0.508
2014-10-05 00:31:00,1920E-3,5C000000,-0724,0828,12181,027.0,045.4,0.479,738.0,01.18,0.508
2014-10-05 00:32:00,1928E-3,5C000000,-0724,0828,12226,027.0,045.4,0.479,737.8,01.18,0.508
2014-10-05 00:33:00,1782E-3,5C000000,-0724,0828,12363,027.0,045.4,0.479,737.8,01.18,0.508
2014-10-05 00:34:00,1923E-3,5C000000,-0724,0827,12229,027.1,045.4,0.479,738.0,01.18,0.508
2014-10-05 00:35:00,1756E-3,5C000000,-0724,0828,12013,027.1,045.4,0.479,737.9,01.18,0.508
2014-10-05 00:36:00,1775E-3,5C000000,-0724,0829,12120,027.2,045.4,0.479,737.9,01.18,0.508
2014-10-05 00:37:00,1742E-3,5C000000,-0724,0828,12199,027.2,045.4,0.479,737.8,01.18,0.508
2014-10-05 00:38:00,1801E-3,5C000000,-0724,0827,12251,027.3,045.4,0.479,737.8,01.18,0.508
2014-10-05 00:39:00,1788E-3,5C000000,-0724,0828,12264,027.3,045.4,0.479,737.8,01.18,0.508
2014-10-05 00:40:00,1755E-3,5C000000,-0724,0827,12189,027.3,045.4,0.479,737.9,01.18,0.508
2014-10-05 00:41:00,1764E-3,5C000000,-0724,0827,12314,027.4,045.4,0.479,737.8,01.18,0.508
2014-10-05 00:42:00,1753E-3,5C000000,-0724,0828,12385,027.4,045.5,0.478,737.8,01.18,0.508
2014-10-05 00:43:00,1791E-3,5C000000,-0724,0827,12183,027.4,045.4,0.479,737.7,01.18,0.508
2014-10-05 00:44:00,1781E-3,5C000000,-0724,0828,12184,027.4,045.4,0.478,737.9,01.18,0.508
2014-10-05 00:45:00,1798E-3,5C000000,-0724,0828,12084,027.3,045.4,0.479,738.0,01.18,0.508
2014-10-05 00:46:00,1808E-3,5C000000,-0724,0828,12077,027.3,045.4,0.478,737.9,01.18,0.508
2014-10-05 00:47:00,1788E-3,5C000000,-0724,0827,12291,027.3,045.4,0.479,737.9,01.18,0.508
2014-10-05 00:48:00,1852E-3,5C000000,-0724,0828,12200,027.2,045.4,0.478,737.9,01.18,0.508
2014-10-05 00:49:00,1770E-3,5C000000,-0724,0827,12367,027.2,045.4,0.479,738.0,01.18,0.508
2014-10-05 00:50:00,1807E-3,5C000000,-0724,0827,12097,027.2,045.4,0.478,738.0,01.18,0.508
2014-10-05 00:51:00,1803E-3,5C000000,-0724,0827,12298,027.2,045.4,0.479,737.8,01.18,0.508
2014-10-05 00:52:00,1813E-3,5C000000,-0724,0828,12271,027.2,045.4,0.478,737.8,01.18,0.508
2014-10-05 00:53:00,1817E-3,5C000000,-0724,0827,12335,027.2,045.4,0.479,737.9,01.18,0.508
2014-10-05 00:54:00,1949E-3,5C000000,-0724,0827,12202,027.1,045.5,0.479,738.0,01.18,0.508
2014-10-05 00:55:00,1779E-3,5C000000,-0724,0828,12320,027.1,045.4,0.479,737.9,01.18,0.508
2014-10-05 00:56:00,2004E-3,5C000000,-0724,0827,12169,027.2,045.4,0.479,737.9,01.18,0.508
2014-10-05 00:57:00,1855E-3,5C000000,-0724,0827,12187,027.2,045.4,0.479,737.8,01.18,0.508
2014-10-05 00:58:00,1736E-3,5C000000,-0724,0827,12260,027.2,045.5,0.479,738.0,01.18,0.508
2014-10-05 00:59:00,1774E-3,5C000000,-0724,0828,12315,027.3,045.5,0.479,737.8,01.18,0.508
2014-10-05 01:00:00,1883E-3,5C000000,-0724,0827,12078,027.3,045.4,0.479,737.8,01.18,0.508
2014-10-05 01:01:00,1896E-3,5C000000,-0724,0827,12258,027.4,045.4,0.479,737.9,01.18,0.508
2014-10-05 01:02:00,1791E-3,5C000000,-0724,0829,12224,027.4,045.4,0.478,737.7,01.18,0.508
2014-10-05 01:03:00,1768E-3,5C000000,-0724,0827,12168,027.4,045.4,0.479,737.9,01.18,0.508
2014-10-05 01:04:00,1746E-3,5C000000,-0724,0827,12214,027.5,045.4,0.479,737.9,01.18,0.508
2014-10-05 01:05:00,1758E-3,5C000000,-0724,0827,12376,027.5,045.4,0.479,738.0,01.18,0.508
2014-10-05 01:06:00,1873E-3,5C000000,-0724,0828,12381,027.4,045.4,0.478,738.0,01.18,0.508
2014-10-05 01:07:00,1787E-3,5C000000,-0724,0828,12120,027.4,045.4,0.479,738.1,01.18,0.508
2014-10-05 01:08:00,1726E-3,5C000000,-0724,0827,12209,027.3,045.4,0.478,738.0,01.18,0.508
2014-10-05 01:09:00,1749E-3,5C000000,-0724,0828,12076,027.3,045.4,0.479,738.1,01.18,0.508
2014-10-05 01:10:00,1742E-3,5C000000,-0724,0828,12236,027.3,045.4,0.478,738.1,01.18,0.508
2014-10-05 01:11:00,1807E-3,5C000000,-0724,0828,12273,027.3,045.4,0.479,738.0,01.18,0.508
2014-10-05 01:12:00,1904E-3,5C000000,-0724,0828,12165,027.2,045.4,0.478,738.0,01.18,0.508
2014-10-05 01:13:00,1745E-3,5C000000,-0724,0827,12212,027.2,045.4,0.479,738.0,01.18,0.508
2014-10-05 01:14:00,1776E-3,5C000000,-0724,0828,12030,027.2,045.5,0.478,738.0,01.18,0.508
2014-10-05 01:15:00,1835E-3,5C000000,-0724,0827,12312,027.2,045.4,0.479,738.0,01.18,0.508
2014-10-05 01:16:00,1781E-3,5C000000,-0724,0827,12108,027.2,045.5,0.479,738.0,01.18,0.508
2014-10-05 01:17:00,1839E-3,5C000000,-0724,0827,12166,027.2,045.4,0.479,738.1,01.18,0.508
2014-10-05 01:18:00,1928E-3,5C000000,-0724,0828,12324,027.2,045.5,0.479,738.0,01.18,0.508
2014-10-05 01:19:00,1925E-3,5C000000,-0724,0828,12275,027.2,045.4,0.479,738.1,01.18,0.508
2014-10-05 01:20:00,1832E-3,5C000000,-0724,0827,12231,027.1,045.4,0.479,738.1,01.18,0.508
2014-10-05 01:21:00,1848E-3,5C000000,-0724,0827,12225,027.1,045.5,0.479,738.1,01.18,0.508
2014-10-05 01:22:00,1987E-3,5C000000,-0724,0827,12174,027.1,045.4,0.479,738.0,01.18,0.508
2014-10-05 01:23:00,1886E-3,5C000000,-0724,0828,12082,027.1,045.4,0.479,738.0,01.18,0.508
2014-10-05 01:24:00,1859E-3,5C000000,-0724,0827,12224,027.2,045.4,0.479,738.0,01.18,0.508
2014-10-05 01:25:00,1779E-3,5C000000,-0724,0828,12236,027.2,045.4,0.479,738.1,01.18,0.508
2014-10-05 01:26:00,1691E-3,5C000000,-0724,0828,12358,027.3,045.4,0.479,738.1,01.18,0.508
2014-10-05 01:27:00,1951E-3,5C000000,-0724,0827,12148,027.3,045.5,0.479,738.0,01.18,0.508
2014-10-05 01:28:00,1982E-3,5C000000,-0724,0828,12193,027.3,045.4,0.478,737.9,01.18,0.508
2014-10-05 01:29:00,1840E-3,5C000000,-0724,0829,12319,027.4,045.4,0.479,738.0,01.18,0.508
2014-10-05 01:30:00,1931E-3,5C000000,-0724,0827,12165,027.4,045.4,0.478,738.0,01.18,0.508
2014-10-05 01:31:00,1898E-3,5C000000,-0724,0828,12280,027.5,045.4,0.479,738.0,01.18,0.508
2014-10-05 01:32:00,1911E-3,5C000000,-0724,0827,12113,027.5,045.4,0.478,738.0,01.18,0.508
2014-10-05 01:33:00,1963E-3,5C000000,-0724,0828,12186,027.5,045.4,0.479,738.0,01.18,0.508
2014-10-05 01:34:00,1950E-3,5C000000,-0724,0828,12139,027.5,045.4,0.478,738.0,01.18,0.508
2014-10-05 01:35:00,1815E-3,5C000000,-0724,0828,12261,027.5,045.4,0.479,738.0,01.18,0.508
2014-10-05 01:36:00,1789E-3,5C000000,-0724,0829,12281,027.4,045.4,0.479,738.1,01.18,0.508
2014-10-05 01:37:00,1837E-3,5C000000,-0724,0828,12228,027.3,045.4,0.478,738.1,01.18,0.508
2014-10-05 01:38:00,1866E-3,5C000000,-0724,0828,12337,027.3,045.4,0.479,738.2,01.18,0.508
2014-10-05 01:39:00,1817E-3,5C000000,-0724,0827,12199,027.2,045.4,0.478,738.1,01.18,0.508
2014-10-05 01:40:00,1826E-3,5C000000,-0724,0827,12154,027.2,045.4,0.479,738.1,01.18,0.508
2014-10-05 01:41:00,1871E-3,5C000000,-0724,0827,12162,027.2,045.4,0.479,738.0,01.18,0.508
2014-10-05 01:42:00,1808E-3,5C000000,-0724,0828,12349,027.2,045.4,0.479,738.1,01.18,0.508
2014-10-05 01:43:00,1733E-3,5C000000,-0724,0828,12062,027.1,045.4,0.479,738.3,01.18,0.508
2014-10-05 01:44:00,1838E-3,5C000000,-0724,0828,12058,027.1,045.4,0.479,738.1,01.18,0.508
2014-10-05 01:45:00,1850E-3,5C000000,-0724,0827,12254,027.1,045.4,0.479,738.2,01.18,0.508
2014-10-05 01:46:00,1713E-3,5C000000,-0724,0828,12147,027.1,045.4,0.479,738.2,01.18,0.508
2014-10-05 01:47:00,1763E-3,5C000000,-0724,0829,12397,027.1,045.4,0.479,738.2,01.18,0.508
2014-10-05 01:48:00,1869E-3,5C000000,-0724,0829,12518,027.2,045.4,0.479,738.1,01.18,0.508
2014-10-05 01:49:00,1818E-3,5C000000,-0724,0828,12294,027.2,045.4,0.478,738.1,01.18,0.508
2014-10-05 01:50:00,1862E-3,5C000000,-0724,0828,12476,027.2,045.4,0.479,738.1,01.18,0.508
2014-10-05 01:51:00,1948E-3,5C000000,-0724,0828,12134,027.2,045.4,0.479,738.0,01.18,0.508
2014-10-05 01:52:00,1642E-3,5C000000,-0724,0828,12307,027.3,045.5,0.479,738.0,01.18,0.508
2014-10-05 01:53:00,1763E-3,5C000000,-0724,0828,12276,027.3,045.5,0.479,738.1,01.18,0.508
2014-10-05 01:54:00,1919E-3,5C000000,-0724,0828,12320,027.3,045.4,0.479,738.0,01.18,0.508
2014-10-05 01:55:00,1745E-3,5C000000,-0724,0828,12319,027.3,045.4,0.479,738.2,01.18,0.508
2014-10-05 01:56:00,1723E-3,5C000000,-0724,0827,12210,027.3,045.5,0.479,738.1,01.18,0.508
2014-10-05 01:57:00,1684E-3,5C000000,-0724,0828,12319,027.3,045.4,0.479,738.2,01.18,0.508
2014-10-05 01:58:00,1925E-3,5C000000,-0724,0828,12272,027.3,045.4,0.478,738.2,01.18,0.508
2014-10-05 01:59:00,1992E-3,5C000000,-0724,0828,12201,027.3,045.5,0.479,738.3,01.18,0.508
2014-10-05 02:00:00,1746E-3,5C000000,-0724,0827,12204,027.3,045.5,0.478,738.3,01.18,0.508
2014-10-05 02:01:00,1813E-3,5C000000,-0724,0828,12229,027.2,045.4,0.479,738.3,01.18,0.508
2014-10-05 02:02:00,1912E-3,5C000000,-0724,0828,12374,027.2,045.4,0.478,738.1,01.18,0.508
2014-10-05 02:03:00,1770E-3,5C000000,-0724,0827,12298,027.2,045.4,0.479,738.1,01.18,0.508
2014-10-05 02:04:00,1917E-3,5C000000,-0724,0828,12238,027.1,045.4,0.479,738.2,01.18,0.508
2014-10-05 02:05:00,1814E-3,5C000000,-0724,0828,12424,027.1,045.4,0.479,738.0,01.18,0.508
2014-10-05 02:06:00,1887E-3,5C000000,-0724,0828,12188,027.1,045.4,0.479,738.2,01.18,0.508
2014-10-05 02:07:00,1766E-3,5C000000,-0724,0827,12348,027.0,045.4,0.479,738.2,01.18,0.508
2014-10-05 02:08:00,1785E-3,5C000000,-0724,0827,12149,027.0,045.4,0.479,738.2,01.18,0.508
2014-10-05 02:09:00,1815E-3,5C000000,-0724,0827,12293,027.0,045.5,0.479,738.1,01.18,0.508
2014-10-05 02:10:00,1930E-3,5C000000,-0724,0829,12101,027.0,045.5,0.479,738.2,01.18,0.508
2014-10-05 02:11:00,1838E-3,5C000000,-0724,0827,12198,027.1,045.4,0.479,738.1,01.18,0.508
2014-10-05 02:12:00,1741E-3,5C000000,-0724,0827,12202,027.1,045.4,0.479,738.2,01.18,0.508
2014-10-05 02:13:00,1733E-3,5C000000,-0724,0828,12124,027.1,045.4,0.479,738.3,01.18,0.508
2014-10-05 02:14:00,1801E-3,5C000000,-0724,0828,12206,027.2,045.4,0.479,738.2,01.18,0.508
2014-10-05 02:15:00,1790E-3,5C000000,-0724,0827,12196,027.3,045.4,0.479,738.2,01.18,0.508
2014-10-05 02:16:00,1893E-3,5C000000,-0724,0828,12160,027.3,045.4,0.479,738.0,01.18,0.508
2014-10-05 02:17:00,1878E-3,5C000000,-0724,0828,12226,027.3,045.4,0.479,738.1,01.18,0.508
2014-10-05 02:18:00,1771E-3,5C000000,-0724,0827,12085,027.3,045.5,0.479,738.1,01.18,0.508
2014-10-05 02:19:00,1872E-3,5C000000,-0724,0828,12231,027.3,045.5,0.478,738.1,01.18,0.508
2014-10-05 02:20:00,1838E-3,5C000000,-0724,0828,12153,027.3,045.5,0.479,738.1,01.18,0.508
2014-10-05 02:21:00,1870E-3,5C000000,-0724,0827,12127,027.3,045.5,0.479,738.0,01.18,0.508
2014-10-05 02:22:00,1835E-3,5C000000,-0724,0827,12338,027.2,045.4,0.479,738.2,01.18,0.508
2014-10-05 02:23:00,1751E-3,5C000000,-0724,0827,12116,027.1,045.4,0.479,737.9,01.18,0.508
2014-10-05 02:24:00,1903E-3,5C000000,-0724,0827,12079,027.1,045.4,0.478,738.1,01.18,0.508
2014-10-05 02:25:00,1709E-3,5C000000,-0724,0828,12120,027.1,045.5,0.479,738.2,01.18,0.508
2014-10-05 02:26:00,1924E-3,5C000000,-0724,0828,12228,027.1,045.4,0.479,738.2,01.18,0.508
2014-10-05 02:27:00,1782E-3,5C000000,-0724,0828,12202,027.1,045.4,0.479,738.1,01.18,0.508
2014-10-05 02:28:00,1657E-3,5C000000,-0724,0827,12235,027.1,045.4,0.479,738.1,01.18,0.508
2014-10-05 02:29:00,1832E-3,5C000000,-0724,0828,12187,027.1,045.4,0.479,738.0,01.18,0.508
2014-10-05 02:30:00,1688E-3,5C000000,-0724,0827,12228,027.1,045.4,0.479,738.1,01.18,0.508
2014-10-05 02:31:00,1795E-3,5C000000,-0724,0828,12306,027.1,045.4,0.479,738.1,01.18,0.508
2014-10-05 02:32:00,1938E-3,5C000000,-0724,0828,12200,027.1,045.4,0.479,738.0,01.18,0.508
2014-10-05 02:33:00,1813E-3,5C000000,-0724,0828,12320,027.2,045.4,0.479,738.2,01.18,0.508
2014-10-05 02:34:00,1655E-3,5C000000,-0724,0827,12089,027.2,045.4,0.479,738.1,01.18,0.508
2014-10-05 02:35:00,1856E-3,5C000000,-0724,0828,12205,027.2,045.4,0.479,737.9,01.18,0.508
2014-10-05 02:36:00,1801E-3,5C000000,-0724,0828,12394,027.2,045.4,0.479,738.0,01.18,0.508
2014-10-05 02:37:00,1882E-3,5C000000,-0724,0828,12245,027.3,045.4,0.479,737.9,01.18,0.508
2014-10-05 02:38:00,1857E-3,5C000000,-0724,0828,12335,027.3,045.4,0.478,737.8,01.18,0.508
2014-10-05 02:39:00,1748E-3,5C000000,-0724,0827,12262,027.3,045.5,0.479,737.9,01.18,0.508
2014-10-05 02:40:00,1819E-3,5C000000,-0724,0828,11970,027.3,045.5,0.479,738.0,01.18,0.508
2014-10-05 02:41:00,1781E-3,5C000000,-0724,0828,12215,027.3,045.4,0.479,737.9,01.18,0.508
2014-10-05 02:42:00,1779E-3,5C000000,-0724,0827,12183,027.2,045.4,0.479,737.9,01.18,0.508
2014-10-05 02:43:00,1807E-3,5C000000,-0724,0827,12418,027.2,045.4,0.479,738.0,01.18,0.508
2014-10-05 02:44:00,1797E-3,5C000000,-0724,0828,12262,027.2,045.4,0.479,738.0,01.18,0.508
2014-10-05 02:45:00,1894E-3,5C000000,-0724,0828,12212,027.1,045.4,0.479,738.0,01.18,0.508
2014-10-05 02:46:00,1745E-3,5C000000,-0724,0827,12278,027.1,045.4,0.479,738.1,01.18,0.508
2014-10-05 02:47:00,1813E-3,5C000000,-0724,0826,12185,027.0,045.4,0.479,737.9,01.18,0.508
2014-10-05 02:48:00,1895E-3,5C000000,-0724,0829,12301,027.0,045.4,0.479,738.0,01.18,0.508
2014-10-05 02:49:00,1841E-3,5C000000,-0724,0828,12280,027.0,045.4,0.479,738.0,01.18,0.508
2014-10-05 02:50:00,1808E-3,5C000000,-0724,0828,12199,027.0,045.4,0.479,738.0,01.18,0.508
2014-10-05 02:51:00,1824E-3,5C000000,-0724,0827,12276,027.0,045.4,0.479,737.9,01.18,0.508
2014-10-05 02:52:00,1809E-3,5C000000,-0724,0828,12274,027.0,045.4,0.479,738.0,01.18,0.508
2014-10-05 02:53:00,1816E-3,5C000000,-0724,0828,12384,027.1,045.4,0.479,737.9,01.18,0.508
2014-10-05 02:54:00,1778E-3,5C000000,-0724,0828,12257,027.1,045.4,0.479,738.0,01.18,0.508
2014-10-05 02:55:00,1758E-3,5C000000,-0724,0829,12211,027.1,045.5,0.479,738.0,01.18,0.508
2014-10-05 02:56:00,1899E-3,5C000000,-0724,0827,12112,027.1,045.4,0.479,737.8,01.18,0.508
2014-10-05 02:57:00,1701E-3,5C000000,-0724,0827,12331,027.2,045.4,0.478,737.7,01.18,0.508
2014-10-05 02:58:00,1710E-3,5C000000,-0724,0827,12220,027.3,045.4,0.479,737.8,01.18,0.508
2014-10-05 02:59:00,1727E-3,5C000000,-0724,0826,12256,027.3,045.4,0.479,737.8,01.18,0.508
2014-10-05 03:00:00,1903E-3,5C000000,-0724,0828,12263,027.3,045.4,0.479,738.0,01.18,0.508
2014-10-05 03:01:00,1956E-3,5C000000,-0724,0827,12291,027.3,045.4,0.479,737.8,01.18,0.508
2014-10-05 03:02:00,1728E-3,5C000000,-0724,0828,12189,027.3,045.4,0.478,737.8,01.18,0.508
2014-10-05 03:03:00,1782E-3,5C000000,-0724,0827,12215,027.3,045.4,0.479,737.9,01.18,0.508
2014-10-05 03:04:00,1925E-3,5C000000,-0724,0828,12180,027.2,045.5,0.478,738.0,01.18,0.508
2014-10-05 03:05:00,1816E-3,5C000000,-0724,0828,12277,027.2,045.4,0.479,738.0,01.18,0.508
2014-10-05 03:06:00,1806E-3,5C000000,-0724,0827,12329,027.1,045.4,0.478,738.0,01.18,0.508
2014-10-05 03:07:00,1773E-3,5C000000,-0724,0827,12148,027.1,045.4,0.479,738.0,01.18,0.508
2014-10-05 03:08:00,1877E-3,5C000000,-0724,0827,12097,027.1,045.5,0.479,738.0,01.18,0.508
2014-10-05 03:09:00,1920E-3,5C000000,-0724,0828,12022,027.1,045.4,0.479,738.0,01.18,0.508
2014-10-05 03:10:00,1880E-3,5C000000,-0724,0828,12234,027.1,045.4,0.479,738.0,01.18,0.508
2014-10-05 03:11:00,1926E-3,5C000000,-0724,0827,12305,027.1,045.4,0.479,738.0,01.18,0.508
2014-10-05 03:12:00,1853E-3,5C000000,-0724,0828,12290,027.1,045.4,0.479,737.9,01.18,0.508
2014-10-05 03:13:00,1788E-3,5C000000,-0724,0827,12161,027.1,045.4,0.478,738.0,01.18,0.508
2014-10-05 03:14:00,1698E-3,5C000000,-0724,0829,12188,027.1,045.4,0.479,738.0,01.18,0.508
2014-10-05 03:15:00,1914E-3,5C000000,-0724,0828,12092,027.1,045.4,0.479,737.9,01.18,0.508
2014-10-05 03:16:00,1795E-3,5C000000,-0724,0829,12265,027.1,045.4,0.479,737.7,01.18,0.508
2014-10-05 03:17:00,2010E-3,5C000000,-0724,0828,12379,027.1,045.4,0.479,737.9,01.18,0.508
2014-10-05 03:18:00,1769E-3,5C000000,-0724,0827,12326,027.2,045.5,0.478,737.8,01.18,0.508
2014-10-05 03:19:00,1795E-3,5C000000,-0724,0827,12264,027.2,045.4,0.479,738.1,01.18,0.508
2014-10-05 03:20:00,1815E-3,5C000000,-0724,0828,12317,027.2,045.4,0.479,737.9,01.18,0.508
2014-10-05 03:21:00,1931E-3,5C000000,-0724,0828,12239,027.2,045.4,0.479,738.1,01.18,0.508
2014-10-05 03:22:00,2043E-3,5C000000,-0724,0827,12023,027.2,045.4,0.479,737.8,01.18,0.508
2014-10-05 03:23:00,1815E-3,5C000000,-0724,0827,12293,027.2,045.4,0.479,738.0,01.18,0.508
2014-10-05 03:24:00,1787E-3,5C000000,-0724,0827,12295,027.2,045.4,0.479,738.0,01.18,0.508
2014-10-05 03:25:00,1894E-3,5C000000,-0724,0827,12314,027.1,045.4,0.479,738.1,01.18,0.508
2014-10-05 03:26:00,1947E-3,5C000000,-0724,0828,12340,027.1,045.4,0.479,738.0,01.18,0.508
2014-10-05 03:27:00,1865E-3,5C000000,-0724,0828,12246,027.0,045.4,0.479,738.0,01.18,0.508
2014-10-05 03:28:00,1793E-3,5C000000,-0724,0828,12176,027.0,045.4,0.479,738.0,01.18,0.508
2014-10-05 03:29:00,1846E-3,5C000000,-0724,0827,12154,027.0,045.4,0.479,738.1,01.18,0.508
2014-10-05 03:30:00,1779E-3,5C000000,-0724,0828,12230,027.0,045.4,0.479,737.8,01.18,0.508
2014-10-05 03:31:00,1705E-3,5C000000,-0724,0828,12235,027.0,045.4,0.479,738.1,01.18,0.508
2014-10-05 03:32:00,1710E-3,5C000000,-0724,0828,12328,027.1,045.4,0.479,737.9,01.18,0.508
2014-10-05 03:33:00,1669E-3,5C000000,-0724,0828,12158,027.1,045.4,0.479,737.9,01.18,0.508
2014-10-05 03:34:00,1749E-3,5C000000,-0724,0827,12183,027.1,045.4,0.479,737.9,01.18,0.508
2014-10-05 03:35:00,1885E-3,5C000000,-0724,0828,12233,027.1,045.4,0.479,738.0,01.18,0.508
2014-10-05 03:36:00,1777E-3,5C000000,-0724,0828,12215,027.2,045.4,0.479,737.9,01.18,0.508
2014-10-05 03:37:00,1659E-3,5C000000,-0724,0828,12052,027.2,045.4,0.479,738.0,01.18,0.508
2014-10-05 03:38:00,1924E-3,5C000000,-0724,0828,12279,027.2,045.4,0.479,737.9,01.18,0.508
2014-10-05 03:39:00,1777E-3,5C000000,-0724,0829,12136,027.2,045.4,0.479,738.1,01.18,0.508
2014-10-05 03:40:00,1889E-3,5C000000,-0724,0827,12354,027.2,045.4,0.479,737.9,01.18,0.508
2014-10-05 03:41:00,1924E-3,5C000000,-0724,0827,12208,027.1,045.4,0.479,738.2,01.18,0.508
2014-10-05 03:42:00,1840E-3,5C000000,-0724,0827,12245,027.1,045.4,0.479,738.2,01.18,0.508
2014-10-05 03:43:00,1835E-3,5C000000,-0724,0827,12266,027.1,045.4,0.479,738.1,01.18,0.508
2014-10-05 03:44:00,1862E-3,5C000000,-0724,0828,12185,027.0,045.4,0.479,738.0,01.18,0.508
2014-10-05 03:45:00,1888E-3,5C000000,-0724,0827,12284,027.0,045.4,0.479,738.1,01.18,0.508
2014-10-05 03:46:00,1823E-3,5C000000,-0724,0828,12278,027.0,045.4,0.479,738.1,01.18,0.508
2014-10-05 03:47:00,1815E-3,5C000000,-0724,0827,12261,027.0,045.4,0.479,738.2,01.18,0.508
2014-10-05 03:48:00,1872E-3,5C000000,-0724,0828,12182,027.0,045.4,0.479,738.0,01.18,0.508
2014-10-05 03:49:00,1855E-3,5C000000,-0724,0828,12252,027.0,045.4,0.479,738.2,01.18,0.508
2014-10-05 03:50:00,1774E-3,5C000000,-0724,0828,12269,027.0,045.4,0.479,738.2,01.18,0.508
2014-10-05 03:51:00,1804E-3,5C000000,-0724,0828,12240,027.1,045.4,0.479,738.2,01.18,0.508
2014-10-05 03:52:00,1786E-3,5C000000,-0724,0828,11910,027.1,045.4,0.479,738.1,01.18,0.508
2014-10-05 03:53:00,1796E-3,5C000000,-0724,0829,12173,027.1,045.4,0.479,738.0,01.18,0.508
2014-10-05 03:54:00,1895E-3,5C000000,-0724,0828,12247,027.2,045.4,0.479,738.1,01.18,0.508
2014-10-05 03:55:00,1819E-3,5C000000,-0724,0827,12149,027.2,045.4,0.479,738.3,01.18,0.508
2014-10-05 03:56:00,1858E-3,5C000000,-0724,0828,12176,027.2,045.4,0.479,738.0,01.18,0.508
2014-10-05 03:57:00,1869E-3,5C000000,-0724,0828,12280,027.2,045.4,0.479,738.2,01.18,0.508
2014-10-05 03:58:00,1841E-3,5C000000,-0724,0828,12238,027.2,045.4,0.479,738.2,01.18,0.508
2014-10-05 03:59:00,1727E-3,5C000000,-0724,0829,12218,027.1,045.4,0.479,738.3,01.18,0.508
2014-10-05 04:00:00,1866E-3,5C000000,-0724,0827,12244,027.1,045.4,0.479,738.2,01.18,0.508
2014-10-05 04:01:00,1989E-3,5C000000,-0724,0828,12285,027.0,045.4,0.479,738.4,01.18,0.508
2014-10-05 04:02:00,1897E-3,5C000000,-0724,0828,12227,027.0,045.4,0.479,738.2,01.18,0.508
2014-10-05 04:03:00,1912E-3,5C000000,-0724,0828,12254,027.0,045.4,0.479,738.2,01.18,0.508
2014-10-05 04:04:00,1860E-3,5C000000,-0724,0828,12305,026.9,045.4,0.479,738.2,01.18,0.508
2014-10-05 04:05:00,1841E-3,5C000000,-0724,0828,12328,026.9,045.5,0.479,738.4,01.18,0.508
2014-10-05 04:06:00,1878E-3,5C000000,-0724,0827,12287,026.9,045.5,0.479,738.4,01.18,0.508
2014-10-05 04:07:00,1895E-3,5C000000,-0724,0828,12258,027.0,045.4,0.479,738.3,01.18,0.508
2014-10-05 04:08:00,1853E-3,5C000000,-0724,0828,12213,027.0,045.4,0.479,738.4,01.18,0.508
2014-10-05 04:09:00,1778E-3,5C000000,-0724,0828,12151,027.0,045.4,0.479,738.4,01.18,0.508
2014-10-05 04:10:00,1820E-3,5C000000,-0724,0827,12099,027.1,045.4,0.479,738.4,01.18,0.508
2014-10-05 04:11:00,1770E-3,5C000000,-0724,0828,12267,027.1,045.4,0.479,738.3,01.18,0.508
2014-10-05 04:12:00,1877E-3,5C000000,-0724,0828,12188,027.1,045.5,0.479,738.4,01.18,0.508
2014-10-05 04:13:00,1822E-3,5C000000,-0724,0828,12212,027.2,045.4,0.479,738.3,01.18,0.508
2014-10-05 04:14:00,1826E-3,5C000000,-0724,0828,12329,027.2,045.4,0.479,738.4,01.18,0.508
2014-10-05 04:15:00,1848E-3,5C000000,-0724,0828,12265,027.1,045.4,0.479,738.5,01.18,0.508
2014-10-05 04:16:00,1765E-3,5C000000,-0724,0827,12302,027.1,045.4,0.479,738.5,01.18,0.508
2014-10-05 04:17:00,1797E-3,5C000000,-0724,0828,12154,027.1,045.4,0.479,738.4,01.18,0.508
2014-10-05 04:18:00,1849E-3,5C000000,-0724,0828,12303,027.0,045.4,0.479,738.4,01.18,0.508
2014-10-05 04:19:00,1851E-3,5C000000,-0724,0827,12362,027.0,045.4,0.479,738.4,01.18,0.508
2014-10-05 04:20:00,1806E-3,5C000000,-0724,0828,12164,027.0,045.4,0.479,738.4,01.18,0.508